Weather History for Salinas, CA

Change the Weather History Date:

Sunday, September 29, 2013

  Actual Average Record
Temperature  
Mean Temperature 63 °F 63 °F  
Max Temperature 76 °F 74 °F 101 °F (1934)
Min Temperature 49 °F 53 °F 43 °F (1971)
Degree Days  
Heating Degree Days 2 3  
Month to date heating degree days 18 61  
Since 1 July heating degree days 123 196  
Cooling Degree Days 0 1  
Month to date cooling degree days 54 29  
Year to date cooling degree days 138 98  
Growing Degree Days 12 (Base 50)    
Moisture  
Dew Point 51 °F    
Average Humidity 60    
Maximum Humidity 84    
Minimum Humidity 35    
Precipitation  
Precipitation 0.00 in 0.01 in 0.42 in (1976)
Month to date precipitation 0.09 0.16  
Year to date precipitation 2.44 8.91  
Since 1 July precipitation 0.11 0.19  
Sea Level Pressure  
Sea Level Pressure 30.11 in    
Wind  
Wind Speed 5 mph (West)    
Max Wind Speed 16 mph    
Max Gust Speed 20 mph    
Visibility 10 miles    
Events      
T = Trace of Precipitation, MM = Missing Value Source: NWS Daily Summary

Daily Weather History Graph

Daily Weather History Graph

Search for Another Location

Airport:

Trip Planner

Search our weather history database for the weather conditions in past years. The results will help you decide how hot, cold, wet, or windy it might be!

Date:

Astronomy

Sep. 29, 2013 Rise Set
Actual Time 7:00 AM PDT 6:52 PM PDT
Civil Twilight 6:34 AM PDT 7:18 PM PDT
Nautical Twilight 6:04 AM PDT 7:47 PM PDT
Astronomical Twilight 5:34 AM PDT 8:18 PM PDT
Moon 1:53 AM PDT (9/29) 3:45 PM PDT (9/29)
Length of Visible Light 12h 43m
Length of Day
11h 51m
Waning Crescent, 26% of the Moon is Illuminated
Sep 29
Waning Crescent
Oct 4
New
Oct 11
First Quarter
Oct 18
Full
Oct 26
Last Quarter

Hourly Weather History & Observations

Time (PDT) Temp. Dew Point Humidity Pressure Visibility Wind Dir Wind Speed Gust Speed Precip Events Conditions
12:53 AM 59.0 °F 52.0 °F 78% 30.11 in 10.0 mi Calm Calm - N/A   Clear
1:53 AM 55.0 °F 48.0 °F 77% 30.10 in 10.0 mi Calm Calm - N/A   Clear
2:53 AM 54.0 °F 46.9 °F 77% 30.11 in 10.0 mi SSE 3.5 mph - N/A   Clear
3:53 AM 52.0 °F 44.1 °F 74% 30.11 in 10.0 mi Calm Calm - N/A   Clear
4:53 AM 52.0 °F 45.0 °F 77% 30.10 in 10.0 mi Calm Calm - N/A   Clear
5:53 AM 51.1 °F 45.0 °F 80% 30.12 in 10.0 mi Calm Calm - N/A   Clear
6:53 AM 48.9 °F 43.0 °F 80% 30.12 in 10.0 mi East 4.6 mph - N/A   Clear
7:53 AM 51.1 °F 43.0 °F 74% 30.13 in 10.0 mi SE 4.6 mph - N/A   Clear
8:53 AM 57.0 °F 43.0 °F 59% 30.14 in 10.0 mi Calm Calm - N/A   Clear
9:53 AM 63.0 °F 43.0 °F 48% 30.14 in 10.0 mi ESE 3.5 mph - N/A   Clear
10:53 AM 69.1 °F 44.1 °F 40% 30.13 in 10.0 mi Calm Calm - N/A   Clear
11:53 AM 73.9 °F 45.0 °F 35% 30.12 in 9.0 mi Variable 3.5 mph - N/A   Clear
12:53 PM 75.0 °F 51.1 °F 43% 30.10 in 10.0 mi West 10.4 mph - N/A   Clear
1:53 PM 73.0 °F 55.0 °F 53% 30.10 in 10.0 mi West 13.8 mph - N/A   Clear
2:53 PM 73.0 °F 53.1 °F 49% 30.09 in 10.0 mi West 13.8 mph - N/A   Clear
3:53 PM 73.0 °F 55.9 °F 55% 30.09 in 10.0 mi West 12.7 mph - N/A   Clear
4:53 PM 72.0 °F 55.9 °F 57% 30.09 in 10.0 mi West 13.8 mph - N/A   Clear
5:53 PM 69.1 °F 55.9 °F 63% 30.09 in 10.0 mi West 10.4 mph - N/A   Clear
6:53 PM 66.9 °F 57.0 °F 70% 30.10 in 10.0 mi WNW 6.9 mph - N/A   Clear
7:53 PM 64.9 °F 57.9 °F 78% 30.12 in 10.0 mi WNW 5.8 mph - N/A   Partly Cloudy
8:53 PM 64.9 °F 59.0 °F 81% 30.14 in 10.0 mi NW 3.5 mph - N/A   Mostly Cloudy
9:10 PM 64.4 °F 57.2 °F 77% 30.10 in 10.0 mi NW 3.5 mph - N/A   Scattered Clouds
9:53 PM 64.0 °F 57.9 °F 80% 30.13 in 10.0 mi Calm Calm - N/A   Clear
10:53 PM 64.0 °F 57.0 °F 78% 30.13 in 10.0 mi Calm Calm - N/A   Clear
11:53 PM 64.0 °F 57.0 °F 78% 30.12 in 10.0 mi Calm Calm - N/A   Clear